Powered by GoogleTranslate

Occupational Safety and Health Administration OSHA

Alert: Due to routine maintenance on the OSHA website, some pages are temporarily unavailable.
To report an emergency, file a complaint with OSHA or ask a safety and health question, call 1-800-321-6742 (OSHA).

Accident Search Results

Description, Abstract, KeywordSICNAICSDate RangeOfficeInsp Nr
Keyword: "Electrician"AllAllAllAllAll

By Date

Results 101 - 120 of 1594
Result Page: 1 2 3 4 5 6 7 8 9 10 ...
  # Summary Nr Event Date Report ID Fat SIC Event Description
101 202615183 11/05/2013 1054112 X 1522,1731 One Employee Is Electrocuted And Another Is Not Injured
102 202556627 09/30/2013 0950631 X 1623 Worker Is Electrocuted While Working In Electrical Vault
103 202082426 09/30/2013 0453730   1731 Electrician Injured In An Arc Flash
104 202556635 09/24/2013 0950631 X 1731 Employee Suffers Electrocution When Contact 480 Volt Current
105 202715603 09/13/2013 0950633 X 1731 Worker Contacts Energized Conductor And Is Electrocuted
106 202715538 09/06/2013 0950633 X 1731 Electrical Worker Is Killed While Pulling Wire
107 202615100 09/05/2013 1054111   1731,1541,4911 Worker Is Burned In Arc Blast When Bolt Contacts Live Elect
108 202658464 09/05/2013 0950643   1731 Electrical Worker Is Shocked While Installing Switch Gear
109 202458287 08/27/2013 0950647 X 2099 Employee Dies From Electrocution In Amp Test
110 202556825 08/23/2013 0950631   1731 Worker Sustains Multiple Fractures In Fall From Ladder
111 200075463 08/23/2013 0453720   4911 Lineman Is Shocked When Rod Contacts High Voltage Line
112 202691879 08/15/2013 0950624   1731 Electrician Is Injured By Electric Shock
113 170784524 08/15/2013 0950621   1731 Electrician Falls From Ladder And Fractures Both Heels
114 201187077 08/12/2013 0950611   1731 Employee Is Injured In Fall From Ladder
115 201045036 08/07/2013 0953220 X 1731 Employeei Falls From H Frame, Later Dies
116 201129889 07/18/2013 0950613   1731 Worker'S Face Is Crushed Between Scissor Lift And Pipe
117 201615499 06/24/2013 1054113   1711 Worker Searching For Electrical Fault Is Shocked
118 201024734 06/21/2013 0950615   1731 Electrician Falls From Ladder And Sustains Fracture
119 200376507 06/21/2013 0454510   1623 Four Workers Sustain Cuts When Glass Meter Shatters
120 170834287 05/24/2013 0950615   2421 Employee Falls From Height And Fractures Hip

Thank You for Visiting Our Website

You are exiting the Department of Labor's Web server.

The Department of Labor does not endorse, takes no responsibility for, and exercises no control over the linked organization or its views, or contents, nor does it vouch for the accuracy or accessibility of the information contained on the destination server. The Department of Labor also cannot authorize the use of copyrighted materials contained in linked Web sites. Users must request such authorization from the sponsor of the linked Web site. Thank you for visiting our site. Please click the button below to continue.

Close